Location: Casco Millpond
(44.5581°N, 87.6111°W)
Time: 20:54:38
(UTC+00:00)

Cosmos 2341 Rocket - Pass Details

Date: 16 January 2026
Orbit: 967 x 1004 km, 82.9° (Epoch: 10 February)

Event Time Altitude Azimuth Distance (km) Brightness Sun altitude
Rises 23:17:24 0° 352° (N) 3,719 6.9 -7.2°
Reaches altitude 10° 23:19:57 10° 353° (N) 2,761 6.2 -7.6°
Maximum altitude 23:26:18 83° 82° (E) 997 4.0 -8.6°
Drops below altitude 10° 23:32:33 10° 170° (S) 2,717 6.5 -9.7°
Sets 23:35:02 0° 172° (S) 3,656 7.2 -10.1°
